Погода в Оберстдорфе

Германия     47°24′37″N   10°16′29″E
темп.,
°C
ветер,
м/с
пор.,
м/с
влажн.,
%
обл.,
%
осадки,
мм/ч
давл.,
гПа
погр.,
м
11 мая, вт
вт1123:00+10ююз119686 0.7 100828
02:00+8ююз229472 0.7 100933
05:00+6ю229330 0.0 100935
08:00+9ссв1185100 0.0 1008169
11:00+13сз3271100 0.0 1005854
14:00+11сз2392100 0.6 1006373
17:00+7зюз2798100 3.9 1010995
20:00+6ююз2397100 10.5 1012373
12 мая, ср
ср1223:00+5ю2397100 3.4 1013143
02:00+5юз2897100 6.6 1013990
05:00+3ююз2598100 5.9 1014601
08:00+3ююз2499100 9.8 1016586
11:00+4з1298100 1.8 1015708
14:00+5всв0097100 2.5 1014452
17:00+7ссв218281 0.2 1011679
20:00+6св228883 0.4 1012257
13 мая, чт
чт1323:00+4ююв1190100 0.1 101241
02:00+4ю2287100 0.1 101140
05:00+4юз1184100 0.0 101031
08:00+5юз128687 0.2 1010396
11:00+8зсз237597 0.8 10081084
14:00+8з2485100 2.3 10081024
17:00+5зсз2597100 1.8 1009881
20:00+4зсз2398100 2.8 1010264
14 мая, пт
пт1423:00+3ююз229780 0.3 101181
02:00+2ююз229398 0.3 101222
05:00+3ююз2295100 0.2 101132
08:00+4ю2296100 0.5 1011189
11:00+7з1281100 0.8 1011818
14:00+10зсз2262100 1.5 10091253
17:00+10зсз126298 0.9 10091195
20:00+6зсз118782 2.1 101113
15 мая, сб
сб1523:00+4ююз119199 0.4 101316
02:00+4зюз2194100 0.6 101433
05:00+3юз229582 0.3 101544
08:00+6юз118583 0.3 1014307
11:00+11сз125390 0.0 10121396
14:00+12с124988 0.1 10101490
17:00+11с2253100 0.1 10081273
20:00+8сз2282100 0.3 100978